[[{"header":{"parameterUnit":"m.s-1","parameterCategory":1,"la1":30.2991,"la2":30.254,"lo1":-89.0895,"lo2":-89.0444,"dy":0.0017,"dx":0.0017,"nx":28,"ny":28,"refTime":"2025-07-12T09:00:00:Z","depth":0,"parameterNumber":2,"parameterNumberName":"U-component_of_WINDS"},"data":[0,0,0,0,0,0,0,0,0,0,0,0,0,0,0,0,0,0,0,0,0,0,0,0,0,0,0,0,0,0,0,0,0,0,0,0,0,0,0,0,0,0,0,0,0,0,0,0,0,0,0,0,0,0,0,0,0,0,-0.2534,-0.2533,0,-0.2377,-0.2375,-0.2373,-0.2262,-0.2262,-0.2261,-0.226,-0.2096,-0.2093,-0.2089,0,0,0,0,0,0,0,0,0,0,0,0,0,-0.2738,-0.2735,-0.2535,-0.2533,-0.2531,-0.2377,-0.2375,-0.2373,-0.2263,-0.2261,-0.226,-0.2259,-0.2097,-0.2093,-0.2089,0,0,0,0,0,0,0,0,0,0,0,0,0,-0.2622,-0.2734,-0.2535,-0.2457,-0.2449,-0.2378,-0.2375,-0.2372,-0.2263,-0.2261,-0.226,-0.2259,-0.2099,-0.2094,-0.2088,-0.2081,0,0,-0.2072,-0.207,0,0,0,0,0,0,0,0,-0.2629,-0.2615,-0.247,-0.2462,-0.2453,-0.2338,-0.2387,-0.2275,-0.2263,-0.2333,-0.226,-0.2258,-0.2178,-0.2166,-0.2139,-0.2074,-0.2067,-0.2072,-0.2068,-0.2066,-0.2065,0,0,0,0,0,0,0,-0.2637,-0.2621,-0.2472,-0.2469,-0.2458,-0.2429,-0.2412,-0.2365,-0.2265,-0.2327,-0.2319,-0.2302,-0.2172,-0.2144,-0.2134,-0.2064,-0.2072,-0.2067,-0.2064,-0.2062,-0.1986,-0.1987,0,0,0,0,0,0,-0.2657,-0.2628,-0.2477,-0.2467,-0.2539,-0.2427,-0.2407,-0.2376,-0.2265,-0.2247,-0.2303,-0.2297,-0.2154,-0.2141,-0.2128,-0.2113,-0.2066,-0.2061,-0.2058,-0.1985,-0.1986,-0.1987,0,0,0,0,0,0,-0.2662,-0.2645,-0.2483,-0.2545,-0.2523,-0.2425,-0.2391,-0.2374,-0.2345,-0.2247,-0.2228,-0.2293,-0.2152,-0.2136,-0.2094,-0.2106,-0.2059,-0.2054,-0.1983,-0.1985,-0.1987,-0.2083,0,0,0,0,0,0,-0.2668,-0.2647,-0.2644,-0.2546,-0.252,-0.2453,-0.2392,-0.2372,-0.2337,-0.2328,-0.2232,-0.2215,-0.215,-0.2103,-0.2089,-0.2098,-0.205,-0.1982,-0.1984,-0.1986,-0.2078,-0.2088,-0.2096,0,0,0,0,0,-0.2676,-0.2677,-0.2645,-0.2627,-0.2514,-0.2454,-0.2439,-0.2365,-0.2338,-0.2334,-0.2271,-0.2218,-0.2107,-0.2099,-0.2083,-0.209,-0.1981,-0.1983,-0.1986,-0.2074,-0.2086,-0.2096,0,0,0,0,0,0,-0.2778,-0.2663,-0.2625,-0.2595,-0.2535,-0.2435,-0.2428,-0.2379,-0.2325,-0.2319,-0.2229,-0.2208,-0.2176,-0.2129,-0.2123,-0.2078,-0.2037,-0.2037,-0.211,-0.212,-0.2129,-0.2141,-0.2045,0,0,0,0,0,-0.2797,-0.2759,-0.266,-0.2642,-0.2614,-0.2527,-0.2498,-0.2446,-0.238,-0.2354,-0.2287,-0.2225,-0.2176,-0.2145,-0.2094,-0.2071,-0.2048,-0.2068,-0.2077,-0.2084,-0.2085,-0.2069,-0.2077,-0.1996,-0.1996,-0.1996,0,0,-0.2836,-0.2768,-0.2749,-0.2661,-0.2608,-0.257,-0.2506,-0.2468,-0.2438,-0.2348,-0.2305,-0.2254,-0.2178,-0.2146,-0.2129,-0.2106,-0.2102,-0.2088,-0.2095,-0.2091,-0.2073,-0.208,-0.2087,-0.1998,-0.1998,-0.1997,0,0,-0.2887,-0.2832,-0.2811,-0.2761,-0.2682,-0.2624,-0.262,-0.2527,-0.249,-0.2446,-0.2377,-0.234,-0.2258,-0.2207,-0.217,-0.2203,-0.2152,-0.2188,-0.2234,-0.222,-0.2227,-0.2232,-0.2244,-0.2249,-0.2189,-0.219,-0.219,0,-0.2945,-0.2885,-0.2807,-0.2773,-0.2736,-0.2653,-0.2632,-0.2586,-0.2495,-0.2472,-0.2447,-0.2342,-0.2285,-0.224,-0.2248,-0.2221,-0.2213,-0.2199,-0.2232,-0.2236,-0.224,-0.2251,-0.2255,-0.2194,-0.2194,-0.2193,-0.2193,0,-0.296,-0.292,-0.2912,-0.2828,-0.279,-0.2763,-0.268,-0.2651,-0.2603,-0.2547,-0.2503,-0.2432,-0.2366,-0.2351,-0.2303,-0.23,-0.2288,-0.2249,-0.2207,-0.2254,-0.2262,-0.2266,-0.2202,-0.22,-0.2198,-0.2197,0,0,-0.3071,-0.2944,-0.2943,-0.2903,-0.2811,-0.2778,-0.2747,-0.2683,-0.266,-0.26,-0.2572,-0.2504,-0.2468,-0.2427,-0.2372,-0.236,-0.2391,-0.2322,-0.2319,-0.2338,-0.2382,-0.2412,-0.2418,-0.2357,-0.2357,-0.2357,-0.2389,0,-0.3108,-0.3049,-0.2978,-0.2942,-0.2904,-0.2825,-0.2797,-0.2738,-0.2685,-0.2644,-0.2585,-0.2539,-0.2495,-0.2469,-0.2453,-0.2391,-0.2398,-0.2387,-0.2329,-0.2328,-0.2351,-0.2422,-0.2454,-0.2487,-0.2391,-0.2392,-0.2392,0,-0.3144,-0.3089,-0.3051,-0.2962,-0.2943,-0.292,-0.2856,-0.2818,-0.2749,-0.2711,-0.2666,-0.2608,-0.257,-0.2533,-0.248,-0.2474,-0.2446,-0.2412,-0.2411,-0.2403,-0.2363,-0.2417,-0.2495,-0.2501,-0.2396,-0.2396,-0.2396,0,-0.323,-0.3146,-0.3112,-0.3081,-0.2976,-0.2962,-0.2918,-0.2847,-0.2814,-0.2757,-0.2735,-0.2675,-0.2642,-0.2596,-0.2524,-0.2503,-0.2479,-0.2435,-0.2447,-0.2449,-0.2445,-0.2447,-0.2521,-0.2427,-0.2427,-0.2427,-0.2427,0,-0.3279,-0.3258,-0.3149,-0.3128,-0.3103,-0.3021,-0.2998,-0.2946,-0.2884,-0.2852,-0.2779,-0.275,-0.2656,-0.2615,-0.2558,-0.2523,-0.2509,-0.2477,-0.2462,-0.2484,-0.2488,-0.2465,-0.2461,-0.2428,-0.2428,-0.2428,-0.2427,0,-0.337,-0.3296,-0.3254,-0.3159,-0.3135,-0.312,-0.3039,-0.3015,-0.2958,-0.2918,-0.2904,-0.2815,-0.2764,-0.2687,-0.2612,-0.2573,-0.2548,-0.2523,-0.2572,-0.2563,-0.2579,-0.2579,-0.2642,-0.2646,-0.255,-0.2551,-0.2551,0,-0.3407,-0.3389,-0.3293,-0.3266,-0.3225,-0.3183,-0.3148,-0.3067,-0.3034,-0.2954,-0.294,-0.2884,-0.2834,-0.2756,-0.2684,-0.2627,-0.26,-0.2626,-0.2591,-0.2614,-0.2601,-0.2603,-0.2601,-0.2635,-0.2636,-0.2637,-0.2638,0,-0.348,-0.3444,-0.3398,-0.3338,-0.3299,-0.3248,-0.3194,-0.3176,-0.3083,-0.3049,-0.2996,-0.2958,-0.2883,-0.2827,-0.276,-0.2714,-0.2661,-0.265,-0.2649,-0.2672,-0.2701,-0.2686,-0.2595,-0.2649,-0.2648,-0.2647,-0.2646,-0.2646,-0.3545,-0.3526,-0.3455,-0.3406,-0.3356,-0.3307,-0.3281,-0.3221,-0.3176,-0.3109,-0.3063,-0.3013,-0.2944,-0.2849,-0.2805,-0.2765,-0.2742,-0.2741,-0.2741,-0.2743,-0.2751,-0.2708,-0.2752,-0.2752,-0.2751,-0.2751,-0.2751,0,-0.3615,-0.3566,-0.3521,-0.3447,-0.3408,-0.3362,-0.33,-0.327,-0.3227,-0.3168,-0.3121,-0.306,-0.3007,-0.2931,-0.2871,-0.2854,-0.2828,-0.2841,-0.2841,-0.2832,-0.2774,-0.2781,-0.2863,-0.2863,-0.2863,-0.2863,-0.2863,-0.2863,-0.3647,-0.3612,-0.3568,-0.3508,-0.3459,-0.341,-0.3378,-0.3332,-0.3284,-0.3221,-0.3176,-0.3127,-0.3061,-0.2996,-0.2945,-0.2924,-0.2905,-0.2926,-0.2898,-0.2846,-0.2836,-0.2826,-0.2831,-0.2923,-0.2923,-0.2958,-0.2959,-0.2959]},{"header":{"parameterUnit":"m.s-1","parameterCategory":1,"la1":30.2991,"la2":30.254,"lo1":-89.0895,"lo2":-89.0444,"dy":0.0017,"dx":0.0017,"nx":28,"ny":28,"refTime":"2025-07-12T09:00:00:Z","depth":0,"parameterNumber":3,"parameterNumberName":"V-component_of_WINDS"},"data":[0,0,0,0,0,0,0,0,0,0,0,0,0,0,0,0,0,0,0,0,0,0,0,0,0,0,0,0,0,0,0,0,0,0,0,0,0,0,0,0,0,0,0,0,0,0,0,0,0,0,0,0,0,0,0,0,0,0,3.4723,3.4722,0,3.4674,3.4673,3.4673,3.4663,3.4663,3.4664,3.4664,3.4608,3.4606,3.4605,0,0,0,0,0,0,0,0,0,0,0,0,0,3.4802,3.4801,3.4723,3.4722,3.4721,3.4674,3.4673,3.4673,3.4663,3.4663,3.4664,3.4664,3.4609,3.4607,3.4605,0,0,0,0,0,0,0,0,0,0,0,0,0,3.4762,3.48,3.4723,3.4711,3.4709,3.4674,3.4673,3.4672,3.4663,3.4663,3.4664,3.4664,3.461,3.4607,3.4604,3.4575,0,0,3.4596,3.4595,0,0,0,0,0,0,0,0,3.4764,3.4759,3.4713,3.4712,3.471,3.4675,3.4681,3.464,3.4663,3.468,3.4664,3.4665,3.463,3.4625,3.4615,3.4573,3.457,3.4595,3.4594,3.4593,3.4592,0,0,0,0,0,0,0,3.4767,3.4761,3.4703,3.4713,3.4711,3.4706,3.4701,3.4673,3.4652,3.4679,3.4678,3.4673,3.4629,3.4617,3.4613,3.457,3.4596,3.4593,3.4591,3.459,3.4501,3.45,0,0,0,0,0,0,3.4772,3.4763,3.4705,3.4702,3.4739,3.4704,3.4699,3.4686,3.4652,3.4648,3.4672,3.4672,3.4622,3.4617,3.4611,3.4575,3.4593,3.459,3.4588,3.4502,3.4501,3.45,0,0,0,0,0,0,3.4774,3.4767,3.4707,3.4732,3.4724,3.4703,3.4688,3.4684,3.4673,3.4648,3.4643,3.4665,3.4622,3.4615,3.4585,3.4573,3.4589,3.4586,3.4502,3.4501,3.45,3.4503,0,0,0,0,0,0,3.4777,3.4768,3.4758,3.4732,3.4723,3.4683,3.4687,3.4683,3.4669,3.4669,3.4639,3.4635,3.4622,3.4589,3.4582,3.457,3.4584,3.4503,3.4502,3.4501,3.4504,3.4502,3.4501,0,0,0,0,0,3.4779,3.476,3.4758,3.4751,3.471,3.4682,3.4677,3.4664,3.4668,3.4657,3.4641,3.4636,3.4576,3.4586,3.4578,3.4565,3.4504,3.4502,3.4501,3.4505,3.4502,3.4501,0,0,0,0,0,0,3.4783,3.4756,3.4754,3.4725,3.4706,3.468,3.4666,3.4662,3.464,3.464,3.4623,3.4617,3.4587,3.4573,3.4585,3.4535,3.454,3.4537,3.4545,3.4543,3.4542,3.4545,3.4582,0,0,0,0,0,3.4781,3.4762,3.4738,3.4716,3.4706,3.4688,3.4675,3.4667,3.4646,3.4637,3.4618,3.4597,3.4573,3.4557,3.4534,3.4502,3.4495,3.4488,3.4487,3.4486,3.4483,3.4464,3.4461,3.4495,3.4495,3.4495,0,0,3.4775,3.4758,3.4747,3.4716,3.47,3.4679,3.4681,3.4659,3.4643,3.4633,3.4604,3.4589,3.4563,3.4532,3.4517,3.4519,3.4472,3.4484,3.4483,3.4481,3.4462,3.4459,3.4457,3.4494,3.4494,3.4494,0,0,3.4755,3.4741,3.472,3.4705,3.4681,3.4669,3.4665,3.4639,3.463,3.4601,3.4593,3.4572,3.4532,3.4514,3.4499,3.4472,3.4467,3.4465,3.4456,3.4439,3.4436,3.4434,3.4423,3.442,3.4462,3.4462,3.4462,0,3.475,3.4721,3.4709,3.4688,3.4674,3.4666,3.4644,3.4629,3.4599,3.4588,3.4591,3.454,3.4522,3.4487,3.448,3.4469,3.4462,3.4468,3.4438,3.4435,3.4433,3.4423,3.4419,3.4462,3.4462,3.4462,3.4462,0,3.4716,3.4695,3.4681,3.4654,3.4638,3.4617,3.4601,3.4586,3.4579,3.4566,3.4536,3.4514,3.4486,3.4477,3.4469,3.444,3.4442,3.4441,3.4446,3.443,3.442,3.4416,3.4462,3.4462,3.4462,3.4462,0,0,3.4696,3.4664,3.4659,3.4647,3.4621,3.4603,3.458,3.4555,3.4542,3.4521,3.4501,3.4467,3.4467,3.445,3.444,3.4425,3.4404,3.4426,3.4425,3.4422,3.437,3.437,3.4366,3.4401,3.44,3.4399,3.4372,0,3.4672,3.4634,3.4623,3.459,3.457,3.4562,3.4542,3.4523,3.451,3.449,3.4475,3.4451,3.4453,3.4443,3.4427,3.441,3.4393,3.4412,3.438,3.4379,3.4387,3.4361,3.4361,3.4336,3.4368,3.4367,3.4367,0,3.464,3.462,3.4586,3.4562,3.4553,3.4536,3.4512,3.4493,3.4471,3.4462,3.4444,3.4436,3.441,3.4417,3.438,3.4393,3.4379,3.4369,3.4368,3.4364,3.4372,3.4356,3.4328,3.4324,3.4361,3.4361,3.4362,0,3.4628,3.4593,3.4568,3.4558,3.453,3.4518,3.4505,3.4484,3.4469,3.4447,3.4437,3.4412,3.4398,3.4377,3.4362,3.4368,3.4326,3.4332,3.4317,3.4318,3.4309,3.4309,3.4278,3.43,3.43,3.43,3.43,0,3.4603,3.4582,3.4563,3.4547,3.4523,3.451,3.4486,3.4472,3.4453,3.4434,3.4425,3.4406,3.4387,3.4365,3.4352,3.4324,3.4317,3.4309,3.4306,3.431,3.4311,3.43,3.4301,3.4299,3.43,3.43,3.43,0,3.4586,3.4573,3.4545,3.4521,3.4515,3.4498,3.4477,3.446,3.4448,3.4423,3.4416,3.4395,3.4369,3.4352,3.4318,3.4309,3.4278,3.4275,3.4286,3.4285,3.4271,3.4273,3.4232,3.4225,3.4252,3.4252,3.4252,0,3.4571,3.4555,3.453,3.4517,3.4505,3.4484,3.447,3.4456,3.4441,3.4414,3.4401,3.4375,3.4353,3.4312,3.4292,3.4266,3.4262,3.425,3.4258,3.4263,3.4262,3.4263,3.4261,3.4248,3.4248,3.4248,3.4248,0,3.4545,3.4539,3.452,3.4498,3.4481,3.4463,3.4444,3.4433,3.4416,3.4399,3.4374,3.4357,3.4323,3.4297,3.4269,3.4254,3.4247,3.4245,3.4241,3.4244,3.4251,3.4247,3.4282,3.4246,3.4246,3.4246,3.4247,3.4247,3.4528,3.4513,3.4494,3.4472,3.4457,3.444,3.4424,3.4409,3.4389,3.4362,3.4354,3.4327,3.4304,3.4266,3.4251,3.4228,3.4229,3.4223,3.4221,3.4219,3.4219,3.4255,3.4223,3.4223,3.4223,3.4223,3.4223,0,3.4501,3.4489,3.4469,3.4444,3.4427,3.4424,3.4403,3.4388,3.4366,3.4346,3.4325,3.4295,3.427,3.4249,3.4222,3.4208,3.4204,3.4201,3.4202,3.4198,3.422,3.4227,3.4205,3.4205,3.4205,3.4205,3.4205,3.4205,3.4486,3.4461,3.4453,3.442,3.4406,3.4382,3.437,3.4353,3.4338,3.4306,3.4285,3.4272,3.4251,3.4223,3.4199,3.4193,3.4183,3.4181,3.4175,3.4195,3.4197,3.4199,3.4205,3.4179,3.4179,3.4155,3.4155,3.4155]}]]